Location: Newark
(51.0500°N, 12.4500°E)
Time: 09:38:42
(UTC+00:00)

Vanguard 1 - Pass Details

Date: 27 February 2020
Orbit: 649 x 3833 km, 34.2° (Epoch: 07 April)

Event Time Altitude Azimuth Distance (km) Brightness Sun altitude
Rises 12:28:35 0° 274° (W) 6,899 14.6 28.9°
Reaches altitude 10° 12:36:41 10° 255° (WSW) 5,121 14.3 28.4°
Maximum altitude 12:42:39 14° 230° (SW) 4,137 14.5 28.1°
Drops below altitude 10° 12:47:25 10° 202° (SSW) 3,896 14.9 27.8°
Sets 12:52:00 0° 178° (S) 4,312 14.3 27.5°
